QFA642 AGGH-YSSY

Flight info

Callsign QFA642
Flight time N/A
Altitude 36000
Route RIPN1A DASSA A598 PUGEL/N0462F380 A598 PONUX/N0461F370 DCT ATROP/N0464F380 DCT MUDDL Q35 SANEG H91 IGDAM/N0455F390 H652 BOREE
Aircraft B738/M-SDE2E3FGHIRWXY/LB1

Departure

Time N/A
Airport Honiara International Airport (AGGH)

Arrival

Time 2026-05-07 17:05
Airport Sydney Kingsford Smith International Airport (YSSY)
Time Latitude Longitude Altitude Speed Heading
2026-05-07 16:34 -31.96358 151.15331 38251 ft 431 kts 212°
2026-05-07 16:35 -32.01967 151.12817 38273 ft 433 kts 211°
2026-05-07 16:35 -32.07562 151.10309 38234 ft 430 kts 211°
2026-05-07 16:35 -32.10311 151.09087 38227 ft 414 kts 211°
2026-05-07 16:36 -32.12961 151.07911 38217 ft 400 kts 212°
2026-05-07 16:36 -32.15516 151.06772 38222 ft 386 kts 212°
2026-05-07 16:36 -32.17985 151.05665 38213 ft 373 kts 213°
2026-05-07 16:36 -32.20362 151.04596 38223 ft 359 kts 213°
2026-05-07 16:37 -32.22655 151.03562 38227 ft 347 kts 213°
2026-05-07 16:37 -32.27169 151.01500 38242 ft 353 kts 213°
2026-05-07 16:38 -32.31786 150.99390 38238 ft 367 kts 212°
2026-05-07 16:38 -32.36604 150.97214 38233 ft 373 kts 212°
2026-05-07 16:39 -32.41420 150.95047 38208 ft 365 kts 212°
2026-05-07 16:39 -32.46122 150.92920 38220 ft 361 kts 213°
2026-05-07 16:39 -32.48557 150.92036 38203 ft 375 kts 202°
2026-05-07 16:40 -32.51186 150.91662 38217 ft 387 kts 194°
2026-05-07 16:40 -32.53926 150.91800 38208 ft 401 kts 184°
2026-05-07 16:40 -32.56654 150.92270 38159 ft 400 kts 182°
2026-05-07 16:40 -32.59411 150.92814 37735 ft 393 kts 182°
2026-05-07 16:41 -32.62053 150.93412 37196 ft 397 kts 173°
2026-05-07 16:41 -32.64665 150.94826 36331 ft 422 kts 153°
2026-05-07 16:41 -32.66909 150.97148 35268 ft 446 kts 137°
2026-05-07 16:41 -32.68943 151.00006 34198 ft 458 kts 133°
2026-05-07 16:42 -32.70947 151.03007 32814 ft 469 kts 133°
2026-05-07 16:42 -32.72970 151.06097 31379 ft 480 kts 133°
2026-05-07 16:42 -32.75023 151.09272 29963 ft 487 kts 133°
2026-05-07 16:42 -32.77077 151.12475 28664 ft 486 kts 133°
2026-05-07 16:43 -32.79095 151.15662 27581 ft 480 kts 133°
2026-05-07 16:43 -32.81074 151.18822 26604 ft 473 kts 133°
2026-05-07 16:43 -32.83010 151.21948 25641 ft 467 kts 133°
2026-05-07 16:43 -32.84908 151.25052 24701 ft 461 kts 133°
2026-05-07 16:44 -32.86783 151.28148 23840 ft 463 kts 133°
2026-05-07 16:44 -32.88657 151.31265 23227 ft 459 kts 133°
2026-05-07 16:44 -32.90476 151.34317 22820 ft 449 kts 132°
2026-05-07 16:44 -32.92258 151.37328 22282 ft 443 kts 132°
2026-05-07 16:45 -32.94023 151.40321 21670 ft 439 kts 132°
2026-05-07 16:45 -32.95753 151.43262 21430 ft 428 kts 132°
2026-05-07 16:45 -32.97436 151.46134 21166 ft 421 kts 132°
2026-05-07 16:45 -32.99123 151.49007 20908 ft 427 kts 132°
2026-05-07 16:46 -33.00833 151.51905 20685 ft 429 kts 132°
2026-05-07 16:46 -33.02546 151.54802 20426 ft 425 kts 133°
2026-05-07 16:46 -33.04518 151.57309 20151 ft 405 kts 151°
2026-05-07 16:46 -33.06859 151.59032 19948 ft 391 kts 160°
2026-05-07 16:47 -33.09263 151.60494 19710 ft 386 kts 162°
2026-05-07 16:47 -33.11666 151.61890 19464 ft 383 kts 162°
2026-05-07 16:47 -33.14056 151.63259 19236 ft 380 kts 162°
2026-05-07 16:47 -33.16442 151.64621 19008 ft 379 kts 162°
2026-05-07 16:48 -33.18815 151.65971 18780 ft 377 kts 162°
2026-05-07 16:48 -33.21177 151.67311 18548 ft 375 kts 162°
2026-05-07 16:48 -33.23531 151.68640 18292 ft 374 kts 162°
2026-05-07 16:48 -33.25880 151.69961 18016 ft 372 kts 162°
2026-05-07 16:49 -33.28217 151.71270 17752 ft 371 kts 162°
2026-05-07 16:49 -33.30552 151.72575 17489 ft 370 kts 162°
2026-05-07 16:49 -33.32881 151.73871 17230 ft 368 kts 162°
2026-05-07 16:49 -33.35203 151.75159 16983 ft 367 kts 162°
2026-05-07 16:50 -33.37484 151.76418 16729 ft 365 kts 162°
2026-05-07 16:50 -33.39784 151.77684 16477 ft 363 kts 162°
2026-05-07 16:50 -33.42079 151.78944 16224 ft 362 kts 162°
2026-05-07 16:50 -33.44364 151.80194 15962 ft 360 kts 162°
2026-05-07 16:51 -33.46630 151.81433 15712 ft 357 kts 162°
2026-05-07 16:51 -33.48887 151.82665 15467 ft 356 kts 162°
2026-05-07 16:51 -33.51136 151.83888 15228 ft 355 kts 162°
2026-05-07 16:51 -33.53384 151.85107 14989 ft 353 kts 162°
2026-05-07 16:52 -33.55575 151.86302 14899 ft 339 kts 163°
2026-05-07 16:52 -33.57742 151.87041 14781 ft 310 kts 185°
2026-05-07 16:52 -33.59716 151.86477 14728 ft 283 kts 214°
2026-05-07 16:52 -33.61007 151.84853 14631 ft 264 kts 243°
2026-05-07 16:53 -33.61469 151.82781 14399 ft 252 kts 249°
2026-05-07 16:53 -33.62308 151.80991 13875 ft 247 kts 232°
2026-05-07 16:53 -33.63345 151.79344 13282 ft 247 kts 232°
2026-05-07 16:53 -33.64379 151.77698 12742 ft 246 kts 232°
2026-05-07 16:54 -33.65404 151.76068 12219 ft 244 kts 231°
2026-05-07 16:54 -33.66423 151.74450 11711 ft 242 kts 231°
2026-05-07 16:54 -33.67439 151.72836 11202 ft 241 kts 231°
2026-05-07 16:54 -33.68445 151.71237 10701 ft 240 kts 231°
2026-05-07 16:55 -33.69449 151.69642 10208 ft 239 kts 230°
2026-05-07 16:55 -33.70447 151.68057 9711 ft 237 kts 230°
2026-05-07 16:55 -33.71439 151.66481 9183 ft 236 kts 230°
2026-05-07 16:55 -33.72427 151.64912 8646 ft 236 kts 230°
2026-05-07 16:56 -33.73414 151.63342 8131 ft 235 kts 230°
2026-05-07 16:56 -33.74396 151.61780 7639 ft 233 kts 230°
2026-05-07 16:56 -33.76343 151.58681 6661 ft 232 kts 230°
2026-05-07 16:57 -33.77310 151.57142 6242 ft 228 kts 230°
2026-05-07 16:57 -33.78258 151.55629 5802 ft 225 kts 230°
2026-05-07 16:57 -33.79202 151.54124 5277 ft 226 kts 230°
2026-05-07 16:57 -33.80148 151.52617 4780 ft 226 kts 230°
2026-05-07 16:58 -33.81086 151.51121 4412 ft 223 kts 229°
2026-05-07 16:58 -33.81992 151.49674 4127 ft 216 kts 230°
2026-05-07 16:58 -33.82889 151.48240 3972 ft 205 kts 230°
2026-05-07 16:58 -33.83713 151.46922 3850 ft 194 kts 230°
2026-05-07 16:59 -33.84496 151.45671 3785 ft 180 kts 229°
2026-05-07 16:59 -33.85220 151.44512 3688 ft 167 kts 229°
2026-05-07 16:59 -33.85908 151.43413 3617 ft 159 kts 229°
2026-05-07 16:59 -33.86563 151.42368 3561 ft 158 kts 229°
2026-05-07 17:00 -33.87231 151.41300 3518 ft 157 kts 230°
2026-05-07 17:00 -33.87876 151.40270 3381 ft 158 kts 230°
2026-05-07 17:00 -33.88537 151.39213 3213 ft 157 kts 229°
2026-05-07 17:00 -33.89128 151.38128 3059 ft 157 kts 241°
2026-05-07 17:01 -33.89509 151.36840 3019 ft 165 kts 246°
2026-05-07 17:01 -33.89857 151.35529 2902 ft 166 kts 248°
2026-05-07 17:01 -33.90179 151.34203 2685 ft 165 kts 249°
2026-05-07 17:01 -33.90489 151.32892 2472 ft 160 kts 250°
2026-05-07 17:02 -33.90783 151.31633 2247 ft 150 kts 250°
2026-05-07 17:02 -33.91054 151.30478 2052 ft 137 kts 251°
2026-05-07 17:02 -33.91298 151.29434 1900 ft 121 kts 251°
2026-05-07 17:02 -33.91512 151.28523 1730 ft 108 kts 252°
2026-05-07 17:03 -33.91717 151.27652 1535 ft 110 kts 251°
2026-05-07 17:03 -33.91918 151.26742 1453 ft 114 kts 252°
2026-05-07 17:03 -33.92135 151.25791 1331 ft 120 kts 252°
2026-05-07 17:03 -33.92364 151.24807 1130 ft 123 kts 253°
2026-05-07 17:04 -33.92606 151.23825 974 ft 121 kts 252°
2026-05-07 17:04 -33.92847 151.22852 775 ft 121 kts 255°
2026-05-07 17:04 -33.93064 151.21862 584 ft 123 kts 255°
2026-05-07 17:04 -33.93308 151.20865 411 ft 126 kts 255°
2026-05-07 17:05 -33.93549 151.19851 236 ft 126 kts 256°
2026-05-07 17:05 -33.93788 151.18846 66 ft 124 kts 255°
2026-05-07 17:05 -33.94000 151.17943 27 ft 90 kts 254°
2026-05-07 17:05 -33.94114 151.17464 31 ft 28 kts 253°
2026-05-07 17:06 -33.94149 151.17314 27 ft 6 kts 257°
2026-05-07 17:06 -33.94120 151.17263 28 ft 11 kts 342°
2026-05-07 17:06 -33.94069 151.17247 28 ft 11 kts 347°
2026-05-07 17:06 -33.93990 151.17219 28 ft 13 kts 318°
2026-05-07 17:07 -33.93996 151.17119 29 ft 12 kts 253°
2026-05-07 17:07 -33.94020 151.17020 29 ft 12 kts 254°
2026-05-07 17:07 -33.94043 151.16924 29 ft 12 kts 254°
2026-05-07 17:07 -33.94065 151.16830 29 ft 12 kts 254°
2026-05-07 17:08 -33.94086 151.16738 29 ft 11 kts 254°
2026-05-07 17:08 -33.94107 151.16645 29 ft 12 kts 254°
2026-05-07 17:08 -33.94135 151.16529 29 ft 17 kts 254°
2026-05-07 17:08 -33.94166 151.16397 29 ft 12 kts 254°
2026-05-07 17:09 -33.94170 151.16325 29 ft 9 kts 289°
2026-05-07 17:09 -33.94108 151.16281 29 ft 13 kts 348°
2026-05-07 17:09 -33.94022 151.16285 28 ft 4 kts 13°
2026-05-07 17:09 -33.93994 151.16293 28 ft 4 kts 11°
2026-05-07 17:10 -33.93943 151.16305 29 ft 10 kts 11°
2026-05-07 17:10 -33.93914 151.16339 29 ft 5 kts 100°
2026-05-07 17:10 -33.93937 151.16375 29 ft 6 kts 124°
2026-05-07 17:10 -33.93951 151.16401 29 ft 2 kts 123°
2026-05-07 17:11 -33.93955 151.16409 29 ft 1 kts 123°
2026-05-07 17:11 -33.93957 151.16413 29 ft 0 kts 123°